COSMOS 2251 DEB

Satellite information

Favourite Embed

Satellite Type and Status

DEBRISIN ORBIT

Key statistics

Satellite COSMOS 2251 DEB at a glance.

Uptime

11824

Days in orbit

Revolutions

≈ 13.2

Per day

Orbit

LEO

Low Earth Orbit

Inclination

74.0

Latest

Satellite identification and parameters

Extended collection of information and parameters for COSMOS 2251 DEB.

Object identification

Identified? True

Debris? True

Object name: COSMOS 2251 DEB

International designator: 1993-036BVT

Object number (NORAD): 40238

Object ID (CCSDS): 40238

Country: COMMONWEALTH OF INDEPENDENT STATES (CIS)

Current information (Y/N): Y

RCS size: SMALL

Orbital parameters

Period: 108.685 minutes

Inclination: 73.9866 deg

SMA: 7544.09 km

Apoapsis: 1582.528 km

Periapsis: 749.382 km

RAAN: 135.6372 deg

Eccentricy: 0.05521843

Argument of periapsis: 116.9879 deg

Mean anomaly: 248.8699 deg

Mean motion: 13.24928646 rev/day

Mean motion (dot): 0.00001684 rev/day2

B* drag term: 0.0017264862 1/REarth

Two-line elements (TLE)

Creation date: Oct. 27, 2025, 2:46 a.m.

Reference frame: TEME

Reference center: EARTH

Epoch: Oct. 26, 2025, 7:49 p.m. UTC

TLE line 0: 0 COSMOS 2251 DEB

TLE line 1: 1 40238U 93036BVT 25299.82575760 .00001684 00000-0 17265-2 0 9997

TLE line 2: 2 40238 73.9866 135.6372 0552184 116.9879 248.8699 13.24928646534150

Live tracking on map

Real-time ground track for satellite COSMOS 2251 DEB.

In-orbit conjunctions

A list of the most updated potential collisions computed for object COSMOS 2251 DEB.

Target Orbit TCA Probability of collision Miss distance Type
SL-16 R/B LEO 2025-10-24 01:09:50 0.0001071739 606.0 (m) ROCKET BODY
SL-8 R/B LEO 2024-08-24 17:27:06 0.0006152868 126.0 (m) ROCKET BODY

Associated space launch

Military communications satellite. Destroyed in a collision with Iridium 33.

COSMOS 2251 DEB was lifted into orbit during the mission ‘Kosmos-3M | Strela-2M 51’, on board a Kosmos-3M space rocket.

The launch took place on June 16, 1993, 4:17 a.m. from 132/1 (132L).

For more information about the launch, click the button.

Launch to space Kosmos-3M | Strela-2M 51
Kosmos-3M | Strela-2M 51

Agency: N/A

Status: Launch Successful

Launch date: June 16, 1993, 4:17 a.m. UTC

Rocket: Kosmos-3M

Launch pad: 132/1 (132L)

Location: Plesetsk Cosmodrome, Russian Federation

...

Latest news about this satellite

There are no fresh news available about this satellite. Check back as we update our databases every day.


Newsletter sign-up

Weekly statistics, charts and insights to help you stay on top of the space industry.